Location: Cisewo
(53.3833°N, 14.9000°E)
Time: 11:42:36
(UTC+00:00)

USA 229 - Pass Details

Date: 02 August 2021
Orbit: 956 x 1256 km, 63.5° (Epoch: 08 August)

Event Time Altitude Azimuth Distance (km) Brightness Sun altitude
Rises 22:57:06 0° 309° (NW) 3,996 7.3 -19.1°
Reaches altitude 10° 23:00:33 10° 294° (WNW) 3,083 6.4 -19.1°
Maximum altitude 23:05:32 20° 251° (WSW) 2,483 5.4 -19.1°
Enters shadow 23:08:19 16° 225° (SW) 2,723 5.4 -19.1°
